Wind_Speed
32 34 35 31 33 34 37 37 37 36 37 36 36 37 38 38 39 39 40 40 40 41 42 44 45 46 44 44 41 37 37 36
36 36 37 37 36 35 35 36 36 36 38 38 39 40 41 42 42 43 43 44 44 45 47 47 49 48 46 46 36 33 35 35
38 38 38 38 37 36 35 37 36 38 38 40 43 46 47 47 49 51 52 48 47 48 49 52 52 49 49 40 34 34 35 36
40 41 41 41 40 36 36 37 37 40 42 43 44 47 49 46 47 52 54 54 54 54 55 58 53 47 40 35 31 33 34 34
44 45 45 42 39 41 40 41 40 43 41 44 46 48 53 51 44 49 50 52 54 59 55 56 46 43 41 34 35 35 34 34
45 47 47 48 47 45 45 44 42 46 45 46 47 50 47 54 46 58 53 56 47 50 46 46 49 42 39 39 36 36 35 37
45 49 50 48 44 45 47 47 46 47 44 46 53 48 48 49 47 47 40 40 39 45 50 45 48 50 42 44 33 34 38 37
45 48 48 47 47 45 46 45 44 43 43 50 52 50 48 50 47 48 46 44 43 41 50 48 52 51 45 39 37 34 35 34
38 44 47 45 44 45 47 47 47 48 48 49 51 50 53 50 51 45 51 53 46 46 43 48 52 46 41 33 31 32 34 36
43 40 41 43 45 45 47 50 53 54 54 53 51 53 54 51 49 54 53 53 58 49 47 47 47 40 42 37 31 33 35 35
42 43 46 47 47 49 51 53 51 50 53 55 57 51 53 56 54 58 56 57 60 48 43 39 37 30 30 27 27 30 34 37
52 51 52 52 52 51 55 55 54 53 52 53 57 57 59 58 60 66 53 59 54 46 39 36 27 28 25 25 26 29 35 36
58 57 57 58 56 55 50 53 49 53 46 41 44 53 56 59 63 68 54 49 48 39 31 25 25 25 26 26 28 31 32 32
60 62 62 59 51 51 51 50 49 50 49 45 49 49 57 60 64 57 35 32 37 43 37 24 27 28 27 31 31 33 32 31
59 57 53 56 50 49 47 49 46 44 49 49 46 53 52 35 40 42 40 40 39 38 33 29 31 31 32 32 32 33 29 31
48 47 51 43 51 43 47 41 43 36 39 37 32 34 42 61 31 36 43 41 43 45 34 34 34 34 34 34 34 36 32 34
50 49 46 43 41 43 43 41 40 41 39 44 46 47 49 52 51 41 45 46 48 47 41 39 34 37 37 36 38 34 33 33
46 53 54 52 51 53 47 48 49 48 52 52 51 57 57 57 57 48 48 45 44 47 43 35 37 40 37 35 34 35 34 34
45 47 48 47 45 47 50 53 51 54 59 59 58 58 56 56 54 50 55 55 42 43 43 39 46 41 35 33 37 36 36 36
Wind_Direction
257 255 258 260 261 264 269 268 264 265 265 264 265 266 266 263 260 259 260 261 263 263 263 262 262 267 273 275 280 282 286 289
260 257 259 260 262 267 270 266 262 261 263 264 266 265 263 263 263 263 262 263 263 262 261 260 260 265 267 273 276 282 287 292
259 259 257 259 261 264 265 266 266 266 260 260 263 266 269 269 270 269 265 263 260 258 257 258 261 264 265 270 272 282 293 298
263 261 258 255 258 263 264 262 260 260 257 261 267 273 274 273 277 274 269 263 259 260 261 263 262 264 270 272 276 282 284 287
263 261 259 256 256 256 258 259 255 259 262 268 269 270 273 278 273 278 273 273 275 271 274 273 260 262 262 268 276 281 285 292
272 269 264 260 256 250 249 250 251 257 264 269 265 268 271 279 281 275 274 270 275 280 263 261 257 261 263 265 272 280 288 292
271 268 267 266 262 261 255 252 253 258 262 267 269 272 273 270 273 276 268 264 275 275 260 278 267 265 260 260 274 282 287 289
264 265 267 266 267 264 259 254 252 253 255 258 266 271 267 269 267 268 272 272 271 279 269 269 274 260 260 264 282 282 281 286
261 259 260 263 264 264 265 264 261 259 253 253 257 261 267 269 266 270 273 276 277 274 275 275 263 267 266 283 288 284 283 284
263 258 255 255 255 256 258 261 263 264 262 258 256 258 263 265 264 265 271 279 280 268 273 263 261 258 274 289 281 276 279 279
261 259 261 261 258 256 255 257 260 256 258 259 256 255 255 260 266 262 262 268 265 273 267 257 253 273 270 265 270 276 277 281
263 264 263 265 266 268 264 255 254 256 256 257 259 261 264 256 256 264 268 252 254 261 245 258 271 257 257 265 269 277 276 281
264 264 263 265 266 265 262 257 252 246 246 253 257 264 263 260 257 247 239 244 259 251 267 272 250 244 254 264 270 272 276 286
262 258 262 266 264 265 262 254 250 249 246 251 254 258 264 255 246 245 248 264 271 289 282 254 240 250 253 259 267 272 279 287
255 253 255 255 256 255 255 254 253 260 260 256 257 252 251 240 255 251 253 270 273 272 257 243 245 250 255 260 268 273 276 290
240 240 249 249 257 263 273 273 269 256 245 241 242 257 256 240 267 248 273 256 273 260 245 237 247 252 261 264 272 273 282 288
267 266 274 279 271 276 280 274 266 272 254 251 269 269 271 263 269 266 265 268 246 258 251 244 251 258 264 268 269 273 278 284
285 281 283 286 286 293 286 279 279 266 264 265 269 268 266 260 262 260 255 259 261 244 250 254 256 255 259 260 265 276 280 284
291 291 293 294 291 287 283 279 275 270 263 264 260 261 253 255 256 261 264 262 245 257 260 274 264 250 252 263 271 282 278 282
Height
5738 5739 5740 5742 5742 5742 5743 5744 5744 5745 5745 5745 5746 5747 5748 5749 5749 5749 5750 5750 5750 5750 5750 5749 5748 5747 5748 5748 5748 5747 5746 5744
5730 5730 5731 5732 5732 5734 5735 5735 5736 5736 5737 5737 5737 5738 5738 5739 5740 5740 5739 5740 5739 5738 5738 5737 5737 5737 5737 5738 5738 5737 5735 5734
5720 5721 5721 5721 5722 5724 5725 5727 5727 5727 5728 5729 5728 5727 5727 5729 5729 5729 5728 5727 5727 5727 5726 5725 5725 5726 5726 5726 5727 5726 5725 5724
5710 5711 5712 5710 5712 5714 5716 5718 5718 5718 5718 5718 5719 5717 5716 5717 5717 5716 5715 5715 5715 5715 5714 5713 5714 5715 5716 5717 5717 5716 5715 5713
5696 5698 5699 5701 5703 5702 5704 5706 5708 5708 5709 5709 5708 5707 5705 5706 5705 5703 5704 5704 5705 5704 5704 5704 5704 5705 5705 5706 5707 5706 5703 5701
5683 5685 5687 5687 5689 5691 5692 5694 5695 5696 5697 5697 5697 5695 5698 5696 5695 5693 5692 5692 5694 5695 5694 5694 5694 5693 5695 5696 5696 5695 5693 5691
5670 5671 5673 5674 5676 5679 5681 5683 5684 5684 5686 5685 5683 5685 5685 5685 5686 5684 5684 5685 5684 5685 5683 5685 5686 5685 5682 5683 5683 5683 5683 5680
5660 5660 5660 5661 5663 5665 5667 5670 5671 5672 5674 5674 5672 5675 5673 5673 5674 5674 5673 5675 5675 5675 5677 5674 5675 5671 5671 5672 5672 5671 5670 5668
5646 5647 5648 5649 5650 5652 5654 5655 5656 5658 5660 5661 5660 5662 5660 5661 5665 5663 5662 5662 5663 5662 5661 5663 5662 5663 5664 5662 5662 5662 5659 5657
5631 5634 5635 5636 5637 5638 5640 5642 5643 5645 5645 5647 5649 5647 5647 5648 5651 5651 5651 5649 5649 5650 5650 5650 5651 5651 5652 5652 5651 5650 5648 5646
5615 5617 5619 5621 5624 5626 5627 5627 5631 5632 5634 5635 5634 5634 5635 5636 5637 5637 5636 5636 5635 5636 5638 5640 5639 5640 5641 5640 5640 5640 5638 5637
5600 5601 5604 5605 5608 5610 5613 5613 5615 5617 5620 5621 5623 5625 5624 5625 5624 5620 5621 5617 5617 5620 5624 5624 5626 5628 5630 5630 5628 5628 5629 5626
5584 5585 5587 5587 5591 5593 5596 5596 5598 5601 5603 5606 5609 5611 5612 5610 5610 5601 5600 5604 5605 5610 5610 5610 5613 5616 5616 5618 5618 5618 5616 5615
5569 5569 5571 5571 5575 5578 5581 5582 5584 5586 5588 5591 5594 5595 5597 5596 5589 5591 5588 5590 5595 5599 5597 5597 5602 5605 5606 5609 5607 5605 5605 5605
5553 5555 5556 5558 5559 5562 5568 5568 5566 5570 5575 5577 5581 5581 5582 5578 5575 5580 5579 5582 5585 5584 5587 5588 5592 5594 5596 5595 5595 5594 5594 5594
5539 5540 5543 5543 5546 5548 5550 5554 5558 5558 5560 5564 5565 5569 5571 5571 5570 5570 5574 5574 5571 5575 5576 5578 5581 5583 5584 5585 5583 5584 5584 5583
5525 5527 5528 5529 5531 5534 5537 5540 5544 5548 5548 5553 5553 5557 5559 5561 5560 5561 5561 5563 5562 5563 5564 5567 5570 5570 5574 5574 5573 5574 5574 5572
5514 5515 5517 5517 5519 5520 5524 5525 5528 5532 5536 5538 5539 5541 5544 5545 5548 5551 5553 5553 5551 5550 5553 5555 5556 5558 5561 5563 5563 5565 5564 5562
5500 5502 5504 5504 5503 5505 5508 5509 5511 5514 5515 5517 5521 5522 5525 5528 5530 5533 5537 5539 5540 5539 5543 5543 5544 5546 5548 5551 5552 5552 5553 5553